DW8482 Tortoreto Alto IT current weather conditions

sailwx.info

Wind from 142 at 4 knots gusting 4

Air temperature 14.4° C
Dewpoint 9.0° C

Last reported at 2014-Dec-20 09:42 UTC.
Time now 2014-Dec-20 10:27 UTC

Location: N 42°48' E 013°54'.
View on Google Maps.

See reports from other nearby stations

  
Tides and Currents Weather Stations Pressure Air Temp Water Temp Dewpoint Dewpoint Depression Visibility Wind Speed Wind Dir Waves Ship Positions
date/time (UTC)wind fromknots sea level pressurealtimeterstation pressurevisibilityair tempwater tempwave heightnotes
2014-Dec-20 09:42 142 4 gusting 4 14.4
2014-Dec-20 09:37 118 1 gusting 6 14.4
2014-Dec-20 09:32 028 13.9
2014-Dec-20 09:27 174 14.4
2014-Dec-20 09:22 198 1 gusting 6 14.4
2014-Dec-20 09:17 186 13.9
2014-Dec-20 09:12 234 13.9
2014-Dec-20 09:07 249 13.3
2014-Dec-20 09:02 222 12.8
2014-Dec-20 08:57 295 13.3
2014-Dec-20 08:52 240 13.3
2014-Dec-20 08:47 210 4 gusting 5 12.8
2014-Dec-20 08:42 227 4 gusting 5 12.8
2014-Dec-20 08:37 255 1 gusting 5 12.2
2014-Dec-20 08:32 261 2 gusting 5 12.2
2014-Dec-20 08:27 274 4 gusting 6 12.2
2014-Dec-20 08:22 236 1 gusting 5 12.2
2014-Dec-20 08:17 251 3 gusting 6 12.2
2014-Dec-20 08:12 242 2 gusting 4 12.2
2014-Dec-20 08:07 259 2 gusting 4 11.7
2014-Dec-20 08:02 230 1 gusting 4 11.7
2014-Dec-20 07:57 289 2 gusting 6 11.7
2014-Dec-20 07:52 237 4 gusting 6 11.7
2014-Dec-20 07:47 245 3 gusting 5 11.7
2014-Dec-20 07:42 236 3 gusting 6 11.7
2014-Dec-20 07:37 246 5 gusting 5 11.1
2014-Dec-20 07:32 241 4 gusting 5 11.1
2014-Dec-20 07:27 250 4 gusting 6 10.6
2014-Dec-20 07:22 242 6 gusting 6 10.6
2014-Dec-20 07:17 244 6 gusting 7 10.6
2014-Dec-20 07:12 244 7 gusting 7 10.6
2014-Dec-20 07:07 240 5 gusting 6 11.1
2014-Dec-20 07:02 233 4 gusting 5 11.1
2014-Dec-20 06:57 240 4 gusting 5 10.6
2014-Dec-20 06:52 246 5 gusting 5 11.1
2014-Dec-20 06:47 241 4 gusting 5 10.6
2014-Dec-20 06:42 244 4 gusting 5 11.1
2014-Dec-20 06:37 254 4 gusting 5 11.1
2014-Dec-20 06:32 261 2 gusting 5 11.1
2014-Dec-20 06:27 258 4 gusting 5 11.1
2014-Dec-20 06:22 257 5 gusting 5 11.1
2014-Dec-20 06:17 267 5 gusting 5 10.6
2014-Dec-20 06:12 271 4 gusting 5 10.6
2014-Dec-20 06:07 269 3 gusting 5 10.6
2014-Dec-20 06:02 268 2 gusting 4 10.6
2014-Dec-20 05:57 263 4 gusting 4 10.0
2014-Dec-20 05:52 258 3 gusting 5 10.0
2014-Dec-20 05:47 259 4 gusting 5 10.0
2014-Dec-20 05:42 270 4 gusting 5 10.0
2014-Dec-20 05:37 259 3 gusting 5 10.0
2014-Dec-20 05:32 259 5 gusting 5 10.0
2014-Dec-20 05:27 264 3 gusting 3 10.6
2014-Dec-20 05:22 235 2 gusting 3 11.1
2014-Dec-20 05:17 235 2 gusting 3 11.1
2014-Dec-20 05:12 235 1 gusting 1 11.7
2014-Dec-20 05:07 235 11.7
2014-Dec-20 05:02 235 1 gusting 2 11.7
2014-Dec-20 04:57 235 11.7
2014-Dec-20 04:52 235 11.1
2014-Dec-20 04:47 235 1 gusting 2 11.7
2014-Dec-20 04:42 235 2 gusting 2 11.7
2014-Dec-20 04:37 235 11.7
2014-Dec-20 04:32 235 11.7
2014-Dec-20 04:27 235 0 gusting 2 11.7
2014-Dec-20 04:22 235 1 gusting 2 11.7
2014-Dec-20 04:17 235 2 gusting 3 11.7
2014-Dec-20 04:12 235 2 gusting 3 11.7
2014-Dec-20 04:07 235 2 gusting 3 11.7
2014-Dec-20 04:02 235 3 gusting 3 11.7
2014-Dec-20 03:57 235 3 gusting 4 11.1
2014-Dec-20 03:52 233 2 gusting 5 11.1
2014-Dec-20 03:47 242 3 gusting 5 11.1
2014-Dec-20 03:42 238 4 gusting 6 11.1
2014-Dec-20 03:37 241 4 gusting 6 11.1
2014-Dec-20 03:32 232 3 gusting 5 11.1
2014-Dec-20 03:27 241 4 gusting 5 10.6
2014-Dec-20 03:22 244 5 gusting 6 10.6
2014-Dec-20 03:17 246 5 gusting 6 10.6
2014-Dec-20 03:12 248 4 gusting 6 10.6
2014-Dec-20 03:07 245 3 gusting 6 10.6
2014-Dec-20 03:02 242 5 gusting 6 10.6
2014-Dec-20 02:57 244 3 gusting 6 10.6
2014-Dec-20 02:52 248 4 gusting 6 10.0
2014-Dec-20 02:47 244 5 gusting 6 10.0
2014-Dec-20 02:42 242 5 gusting 6 10.0
2014-Dec-20 02:37 250 5 gusting 7 9.4
2014-Dec-20 02:32 245 5 gusting 6 9.4
2014-Dec-20 02:27 254 4 gusting 7 10.0
2014-Dec-20 02:22 255 6 gusting 6 10.0
2014-Dec-20 02:17 242 4 gusting 5 9.4
2014-Dec-20 02:12 254 4 gusting 6 9.4
2014-Dec-20 02:07 244 5 gusting 6 9.4
2014-Dec-20 02:02 246 6 gusting 6 10.0
2014-Dec-20 01:57 251 4 gusting 5 10.6
2014-Dec-20 01:52 251 3 gusting 6 10.0
2014-Dec-20 01:47 244 6 gusting 6 10.6
2014-Dec-20 01:42 260 3 gusting 5 10.0
2014-Dec-20 01:37 254 4 gusting 4 10.6
2014-Dec-20 01:32 281 3 gusting 4 10.6
2014-Dec-20 01:27 284 3 gusting 4 10.6
2014-Dec-20 01:22 265 4 gusting 5 10.6
2014-Dec-20 01:17 275 4 gusting 5 10.6
2014-Dec-20 01:12 278 5 gusting 5 10.0
2014-Dec-20 01:07 290 4 gusting 6 10.0
2014-Dec-20 01:02 289 4 gusting 6 10.6
2014-Dec-20 00:57 286 5 gusting 6 10.6
2014-Dec-20 00:52 298 4 gusting 6 10.6
2014-Dec-20 00:47 288 3 gusting 5 10.6
2014-Dec-20 00:42 289 2 gusting 4 10.0
2014-Dec-20 00:37 284 3 gusting 5 10.0
2014-Dec-20 00:32 295 4 gusting 5 10.0
2014-Dec-20 00:27 273 3 gusting 5 10.6
2014-Dec-20 00:22 271 4 gusting 5 10.6
2014-Dec-20 00:17 271 2 gusting 5 10.6
2014-Dec-20 00:12 269 3 gusting 5 10.6
2014-Dec-20 00:07 271 4 gusting 5 10.6
2014-Dec-20 00:02 271 4 gusting 5 10.6
2014-Dec-19 23:57 263 3 gusting 5 10.6
2014-Dec-19 23:52 258 3 gusting 4 10.6
2014-Dec-19 23:47 280 1 gusting 4 10.6
2014-Dec-19 23:42 289 11.1
2014-Dec-19 23:37 289 11.1
2014-Dec-19 23:32 289 0 gusting 2 11.1
2014-Dec-19 23:27 262 11.7
2014-Dec-19 23:22 262 11.7
2014-Dec-19 23:17 262 11.1
2014-Dec-19 23:12 262 11.1
2014-Dec-19 23:07 262 11.1
2014-Dec-19 23:02 262 11.1
2014-Dec-19 22:57 262 10.6
2014-Dec-19 22:52 262 0 gusting 2 10.6
2014-Dec-19 22:47 262 1 gusting 2 10.6
2014-Dec-19 22:42 262 1 gusting 2 10.6
2014-Dec-19 22:37 262 1 gusting 2 10.6
2014-Dec-19 22:32 262 1 gusting 3 10.6
2014-Dec-19 22:27 262 2 gusting 2 10.6
2014-Dec-19 22:22 262 10.0
2014-Dec-19 22:17 262 1 gusting 3 10.0
2014-Dec-19 22:12 262 2 gusting 4 10.0
2014-Dec-19 22:07 262 3 gusting 5 10.0
2014-Dec-19 22:02 258 4 gusting 5 10.0
2014-Dec-19 21:57 260 4 gusting 4 10.0
2014-Dec-19 21:52 261 3 gusting 4 10.0
2014-Dec-19 21:47 261 3 gusting 4 10.0
2014-Dec-19 21:42 264 3 gusting 4 10.0
2014-Dec-19 21:37 267 3 gusting 3 10.6
2014-Dec-19 21:32 268 2 gusting 2 10.6
2014-Dec-19 21:27 267 10.6
2014-Dec-19 21:22 268 10.6
2014-Dec-19 21:17 267 10.0
2014-Dec-19 21:12 268 1 gusting 3 10.0
2014-Dec-19 21:07 273 3 gusting 4 10.0
2014-Dec-19 21:02 265 4 gusting 4 10.0
2014-Dec-19 20:57 260 2 gusting 5 9.4
2014-Dec-19 20:52 259 4 gusting 5 9.4
2014-Dec-19 20:47 254 5 gusting 5 9.4
2014-Dec-19 20:42 246 4 gusting 4 9.4
2014-Dec-19 20:37 254 4 gusting 5 9.4
2014-Dec-19 20:32 252 5 gusting 5 9.4
2014-Dec-19 20:27 252 4 gusting 6 10.0
2014-Dec-19 20:22 249 4 gusting 6 10.0
2014-Dec-19 20:17 249 4 gusting 5 10.0
2014-Dec-19 20:12 247 4 gusting 5 10.0
2014-Dec-19 20:07 254 4 gusting 5 10.0
2014-Dec-19 20:02 254 4 gusting 4 10.6
2014-Dec-19 19:57 254 4 gusting 4 10.0
2014-Dec-19 19:52 254 3 gusting 4 10.0
2014-Dec-19 19:47 254 3 gusting 4 10.0
2014-Dec-19 19:42 248 3 gusting 4 10.0
2014-Dec-19 19:37 238 3 gusting 3 10.6
2014-Dec-19 19:32 215 2 gusting 3 10.6
2014-Dec-19 19:27 215 3 gusting 3 10.0
2014-Dec-19 19:22 215 1 gusting 2 10.0
2014-Dec-19 19:17 215 1 gusting 2 10.0
2014-Dec-19 19:12 215 2 gusting 2 10.0
2014-Dec-19 19:07 215 1 gusting 3 10.0
2014-Dec-19 19:02 215 2 gusting 3 10.0
2014-Dec-19 18:57 215 2 gusting 3 10.0
2014-Dec-19 18:52 215 2 gusting 3 10.0
2014-Dec-19 18:47 209 3 gusting 3 10.0
2014-Dec-19 18:42 209 1 gusting 3 10.0
2014-Dec-19 18:37 209 1 gusting 3 10.0
2014-Dec-19 18:32 214 1 gusting 3 10.0
2014-Dec-19 18:27 226 2 gusting 3 10.0
2014-Dec-19 18:22 227 1 gusting 2 10.0
2014-Dec-19 18:17 227 10.0
2014-Dec-19 18:12 227 10.0
2014-Dec-19 18:07 227 10.0
2014-Dec-19 18:02 227 1 gusting 1 10.0
2014-Dec-19 17:57 227 1 gusting 1 10.6
2014-Dec-19 17:52 227 0 gusting 2 10.0
2014-Dec-19 17:47 227 10.0
2014-Dec-19 17:42 227 10.6
2014-Dec-19 17:37 227 10.6
2014-Dec-19 17:32 227 10.6
2014-Dec-19 17:27 227 10.6
2014-Dec-19 17:22 227 10.6
2014-Dec-19 17:17 227 10.6
2014-Dec-19 17:12 227 10.6
2014-Dec-19 17:07 227 10.6
2014-Dec-19 17:02 227 10.6
2014-Dec-19 16:57 227 1 gusting 2 10.6
2014-Dec-19 16:52 177 1 gusting 2 10.6
2014-Dec-19 16:47 177 1 gusting 2 10.6
2014-Dec-19 16:42 177 1 gusting 2 10.6
2014-Dec-19 16:37 170 2 gusting 2 10.6
2014-Dec-19 16:32 168 2 gusting 2 10.6
2014-Dec-19 16:27 165 1 gusting 2 10.6
2014-Dec-19 16:22 159 10.6
2014-Dec-19 16:17 105 10.6
2014-Dec-19 16:12 105 10.0
2014-Dec-19 16:07 105 10.0
2014-Dec-19 16:02 105 10.0
2014-Dec-19 15:57 105 10.0
2014-Dec-19 15:47 105 10.0
2014-Dec-19 15:42 105 10.0
2014-Dec-19 15:37 105 10.0
2014-Dec-19 15:32 105 10.0
2014-Dec-19 15:27 105 10.0
2014-Dec-19 15:22 105 10.0
2014-Dec-19 15:17 105 0 gusting 2 10.0
2014-Dec-19 15:12 101 2 gusting 4 10.0
2014-Dec-19 15:07 078 2 gusting 2 10.0
2014-Dec-19 15:02 055 10.0
2014-Dec-19 14:57 055 10.0
2014-Dec-19 14:52 055 10.0
2014-Dec-19 14:47 055 10.0
2014-Dec-19 14:42 055 10.6
2014-Dec-19 14:37 055 10.6
2014-Dec-19 14:32 055 10.6
2014-Dec-19 14:27 055 10.6
2014-Dec-19 14:22 055 10.6
2014-Dec-19 14:17 055 10.6
2014-Dec-19 14:12 055 10.6
2014-Dec-19 14:07 055 10.6
2014-Dec-19 14:02 055 10.6
2014-Dec-19 13:57 055 10.6
2014-Dec-19 13:52 055 11.1
2014-Dec-19 13:47 055 11.1
2014-Dec-19 13:42 055 11.1
2014-Dec-19 13:37 055 0 gusting 0 11.1
2014-Dec-19 13:32 055 11.1
2014-Dec-19 13:27 055 11.7
2014-Dec-19 13:22 055 11.1
2014-Dec-19 13:17 055 10.6
2014-Dec-19 13:12 055 10.6
2014-Dec-19 13:07 055 11.1
2014-Dec-19 13:02 055 11.1
2014-Dec-19 12:57 055 1 gusting 2 11.1
2014-Dec-19 12:52 055 11.1
2014-Dec-19 12:47 055 11.1
2014-Dec-19 12:42 055 0 gusting 3 11.7
2014-Dec-19 12:37 057 1 gusting 2 11.7
2014-Dec-19 12:32 061 3 gusting 4 11.7
2014-Dec-19 12:27 065 3 gusting 4 11.7
2014-Dec-19 12:22 075 1 gusting 4 11.7
2014-Dec-19 12:17 042 4 gusting 6 11.7
2014-Dec-19 12:12 067 3 gusting 6 11.7
2014-Dec-19 12:07 065 2 gusting 5 12.2
2014-Dec-19 12:02 044 2 gusting 6 12.2
2014-Dec-19 11:57 035 5 gusting 6 12.2
2014-Dec-19 11:52 039 2 gusting 6 12.8
2014-Dec-19 11:47 051 3 gusting 6 12.8
2014-Dec-19 11:42 046 3 gusting 4 12.8
2014-Dec-19 11:37 074 2 gusting 4 12.8
2014-Dec-19 11:32 053 3 gusting 3 12.8
2014-Dec-19 11:27 063 2 gusting 4 12.8
2014-Dec-19 11:22 070 3 gusting 4 12.2
2014-Dec-19 11:17 049 2 gusting 6 12.2
2014-Dec-19 11:12 065 3 gusting 4 12.2
2014-Dec-19 11:07 060 2 gusting 3 12.2
2014-Dec-19 11:02 060 1 gusting 4 12.2
2014-Dec-19 10:57 064 2 gusting 3 12.2
2014-Dec-19 10:52 069 12.2
2014-Dec-19 10:47 065 1 gusting 3 12.2
2014-Dec-19 10:42 063 2 gusting 3 12.2
2014-Dec-19 10:37 065 2 gusting 3 12.2
2014-Dec-19 10:32 071 2 gusting 3 12.2
2014-Dec-19 10:27 055 1 gusting 3 12.8
2014-Dec-19 10:22 050 1 gusting 2 12.8
2014-Dec-19 10:17 076 12.8
2014-Dec-19 10:12 076 12.8
2014-Dec-19 10:07 076 12.2
2014-Dec-19 10:02 076 12.2
2014-Dec-19 09:57 076 12.8
2014-Dec-19 09:52 076 12.2
2014-Dec-19 09:47 076 12.8
2014-Dec-19 09:42 043 12.2
2014-Dec-19 09:37 028 12.2
2014-Dec-19 09:32 035 2 gusting 3 12.2
2014-Dec-19 09:27 060 11.7
2014-Dec-19 09:22 060 0 gusting 2 11.1
2014-Dec-19 09:17 060 11.1
2014-Dec-19 09:12 060 11.7
2014-Dec-19 09:07 060 11.7
2014-Dec-19 09:02 060 11.7
2014-Dec-19 08:57 060 1 gusting 3 12.2
2014-Dec-19 08:52 263 12.2
2014-Dec-19 08:47 263 11.7
2014-Dec-19 08:42 263 11.1
2014-Dec-19 08:37 263 1 gusting 2 11.1
2014-Dec-19 08:32 263 1 gusting 3 11.1
2014-Dec-19 08:27 263 2 gusting 3 10.6
2014-Dec-19 08:22 263 2 gusting 3 10.6
2014-Dec-19 08:17 263 2 gusting 3 10.6
2014-Dec-19 08:12 263 1 gusting 4 10.6
2014-Dec-19 08:07 259 3 gusting 4 10.0
2014-Dec-19 08:02 259 3 gusting 5 10.0
2014-Dec-19 07:57 254 3 gusting 5 10.0
2014-Dec-19 07:52 256 3 gusting 4 10.0
2014-Dec-19 07:47 252 3 gusting 5 9.4
2014-Dec-19 07:42 250 3 gusting 5 9.4
2014-Dec-19 07:37 250 3 gusting 5 9.4
2014-Dec-19 07:32 254 4 gusting 5 8.9
2014-Dec-19 07:27 253 3 gusting 5 8.9
2014-Dec-19 07:22 254 5 gusting 5 8.9
2014-Dec-19 07:17 246 2 gusting 6 8.3
2014-Dec-19 07:12 244 4 gusting 6 8.3
2014-Dec-19 07:07 248 5 gusting 6 8.3
2014-Dec-19 07:02 249 6 gusting 6 8.9
2014-Dec-19 06:57 248 4 gusting 6 8.9
2014-Dec-19 06:52 232 3 gusting 5 9.4
2014-Dec-19 06:47 234 9.4
2014-Dec-19 06:42 238 9.4
2014-Dec-19 06:37 238 9.4
2014-Dec-19 06:32 238 9.4
2014-Dec-19 06:27 221 9.4
2014-Dec-19 06:22 149 9.4
2014-Dec-19 06:17 281 9.4
2014-Dec-19 06:12 236 9.4
2014-Dec-19 06:07 284 8.9
2014-Dec-19 06:02 346 8.9
2014-Dec-19 05:57 278 8.9
2014-Dec-19 05:52 107 9.4
2014-Dec-19 05:47 098 9.4
2014-Dec-19 05:42 078 9.4
2014-Dec-19 05:37 022 9.4
2014-Dec-19 05:32 019 9.4
2014-Dec-19 05:27 019 9.4
2014-Dec-19 05:22 019 9.4
2014-Dec-19 05:17 019 9.4
2014-Dec-19 05:12 019 9.4
2014-Dec-19 05:07 011 9.4
2014-Dec-19 05:02 092 9.4
2014-Dec-19 04:57 092 9.4
2014-Dec-19 04:52 092 9.4
2014-Dec-19 04:47 088 8.9
2014-Dec-19 04:42 246 8.9
2014-Dec-19 04:37 277 8.9
2014-Dec-19 04:32 117 8.9
2014-Dec-19 04:27 117 9.4
2014-Dec-19 04:22 117 9.4
2014-Dec-19 04:17 117 9.4
2014-Dec-19 04:12 117 9.4
2014-Dec-19 04:07 117 9.4
2014-Dec-19 04:02 117 8.9
2014-Dec-19 03:57 127 0 gusting 1 8.9
2014-Dec-19 03:52 132 8.9
2014-Dec-19 03:47 132 8.9
2014-Dec-19 03:42 217 9.4
2014-Dec-19 03:37 212 9.4
2014-Dec-19 03:32 202 9.4
2014-Dec-19 03:27 144 9.4
2014-Dec-19 03:22 144 9.4
2014-Dec-19 03:17 144 10.0
2014-Dec-19 03:12 146 10.0
2014-Dec-19 03:07 146 10.0
2014-Dec-19 03:02 146 10.0
2014-Dec-19 02:57 146 10.0
2014-Dec-19 02:52 146 10.0
2014-Dec-19 02:47 146 10.0
2014-Dec-19 02:42 146 9.4
2014-Dec-19 02:37 146 9.4
2014-Dec-19 02:32 146 9.4
2014-Dec-19 02:27 227 9.4
2014-Dec-19 02:22 227 9.4
2014-Dec-19 02:17 227 9.4
2014-Dec-19 02:12 225 9.4
2014-Dec-19 02:07 225 9.4
2014-Dec-19 02:02 178 9.4
2014-Dec-19 01:57 213 2 gusting 4 8.9
2014-Dec-19 01:52 196 0 gusting 4 8.9
2014-Dec-19 01:47 223 2 gusting 3 8.9
2014-Dec-19 01:42 228 8.9
2014-Dec-19 01:37 228 8.9
2014-Dec-19 01:32 207 1 gusting 3 9.4
2014-Dec-19 01:27 255 8.9
2014-Dec-19 01:22 249 8.9
2014-Dec-19 01:17 241 2 gusting 4 8.9
2014-Dec-19 01:12 248 8.9
2014-Dec-19 01:07 225 3 gusting 5 8.9
2014-Dec-19 01:02 206 3 gusting 5 8.9
2014-Dec-19 00:57 227 3 gusting 5 8.9
2014-Dec-19 00:52 220 2 gusting 6 8.9
2014-Dec-19 00:47 202 3 gusting 6 8.9
2014-Dec-19 00:42 206 3 gusting 4 8.9
2014-Dec-19 00:37 186 3 gusting 5 8.9
2014-Dec-19 00:32 199 5 gusting 5 8.9
2014-Dec-19 00:27 210 5 gusting 5 8.9
2014-Dec-19 00:22 225 1 gusting 4 8.9
2014-Dec-19 00:17 134 8.9
2014-Dec-19 00:12 229 8.9
2014-Dec-19 00:07 211 8.9
2014-Dec-19 00:02 191 8.9
2014-Dec-18 23:57 215 8.9
2014-Dec-18 23:52 333 8.9
2014-Dec-18 23:47 327 8.9
2014-Dec-18 23:42 119 8.9
2014-Dec-18 23:37 232 8.9
2014-Dec-18 23:32 217 8.9
2014-Dec-18 23:27 277 8.9
2014-Dec-18 23:22 211 8.9
2014-Dec-18 23:17 188 8.9
2014-Dec-18 23:12 234 3 gusting 4 8.9
2014-Dec-18 23:07 208 3 gusting 5 9.4
2014-Dec-18 23:02 220 2 gusting 4 9.4
2014-Dec-18 22:57 222 3 gusting 5 9.4
2014-Dec-18 22:52 215 3 gusting 4 8.9
2014-Dec-18 22:47 215 3 gusting 4 9.4
2014-Dec-18 22:42 203 3 gusting 5 9.4
2014-Dec-18 22:37 208 2 gusting 4 9.4
2014-Dec-18 22:32 223 3 gusting 3 9.4
2014-Dec-18 22:27 223 2 gusting 4 9.4
2014-Dec-18 22:22 219 2 gusting 4 9.4
2014-Dec-18 22:17 232 2 gusting 3 9.4
2014-Dec-18 22:12 227 2 gusting 3 9.4
2014-Dec-18 22:07 219 2 gusting 3 9.4
2014-Dec-18 22:02 213 2 gusting 4 9.4
2014-Dec-18 21:57 201 2 gusting 4 9.4
2014-Dec-18 21:52 213 3 gusting 3 9.4
2014-Dec-18 21:47 248 2 gusting 2 9.4
2014-Dec-18 21:42 248 9.4
2014-Dec-18 21:37 248 8.9
2014-Dec-18 21:32 248 2 gusting 3 8.9
2014-Dec-18 21:27 248 3 gusting 3 8.9
2014-Dec-18 21:22 248 3 gusting 3 9.4
2014-Dec-18 21:17 248 0 gusting 1 9.4
2014-Dec-18 21:12 248 1 gusting 2 9.4
2014-Dec-18 21:07 248 1 gusting 2 9.4
2014-Dec-18 21:02 248 2 gusting 2 9.4
2014-Dec-18 20:57 248 1 gusting 2 8.9
2014-Dec-18 20:52 248 2 gusting 3 9.4
2014-Dec-18 20:47 248 2 gusting 3 9.4
2014-Dec-18 20:42 248 2 gusting 3 9.4
2014-Dec-18 20:37 248 2 gusting 3 9.4
2014-Dec-18 20:32 248 0 gusting 3 9.4
2014-Dec-18 20:27 248 3 gusting 3 9.4
2014-Dec-18 20:22 248 9.4
2014-Dec-18 20:17 248 3 gusting 4 9.4
2014-Dec-18 20:12 248 3 gusting 4 9.4
2014-Dec-18 20:07 248 3 gusting 4 9.4
2014-Dec-18 20:02 248 2 gusting 3 9.4
2014-Dec-18 19:57 248 3 gusting 4 9.4
2014-Dec-18 19:52 248 3 gusting 4 8.9
2014-Dec-18 19:47 248 4 gusting 5 9.4
2014-Dec-18 19:42 248 4 gusting 5 9.4
2014-Dec-18 19:37 247 5 gusting 5 9.4
2014-Dec-18 19:32 251 4 gusting 4 9.4
2014-Dec-18 19:27 251 3 gusting 4 9.4
2014-Dec-18 19:22 251 3 gusting 4 9.4
2014-Dec-18 19:17 251 3 gusting 4 9.4
2014-Dec-18 19:12 251 2 gusting 4 9.4
2014-Dec-18 19:07 256 3 gusting 3 9.4
2014-Dec-18 19:02 256 3 gusting 4 9.4
2014-Dec-18 18:57 256 3 gusting 4 9.4
2014-Dec-18 18:52 262 2 gusting 4 9.4
2014-Dec-18 18:47 263 2 gusting 4 9.4
2014-Dec-18 18:42 253 3 gusting 5 9.4
2014-Dec-18 18:37 261 3 gusting 4 9.4
2014-Dec-18 18:32 250 3 gusting 4 9.4
2014-Dec-18 18:27 250 3 gusting 4 9.4
2014-Dec-18 18:22 250 3 gusting 4 9.4
2014-Dec-18 18:17 250 2 gusting 4 9.4
2014-Dec-18 18:12 250 2 gusting 4 9.4
2014-Dec-18 18:07 250 3 gusting 4 9.4
2014-Dec-18 18:02 250 3 gusting 5 9.4
2014-Dec-18 17:57 267 1 gusting 4 9.4
2014-Dec-18 17:52 268 2 gusting 4 10.0
2014-Dec-18 17:47 277 2 gusting 3 10.0
2014-Dec-18 17:42 279 2 gusting 3 10.0
2014-Dec-18 17:37 281 2 gusting 3 10.0
2014-Dec-18 17:32 288 2 gusting 3 10.0
2014-Dec-18 17:27 298 3 gusting 4 10.0
2014-Dec-18 17:22 311 2 gusting 5 10.0
2014-Dec-18 17:17 323 2 gusting 5 9.4
2014-Dec-18 17:12 309 3 gusting 5 9.4
2014-Dec-18 17:07 316 4 gusting 5 9.4
2014-Dec-18 17:02 327 2 gusting 3 9.4
2014-Dec-18 16:57 336 3 gusting 3 9.4
2014-Dec-18 16:52 340 1 gusting 2 9.4
2014-Dec-18 16:47 350 9.4
2014-Dec-18 16:42 340 10.0
2014-Dec-18 16:37 018 10.0
2014-Dec-18 16:32 10.0
2014-Dec-18 16:27 10.0
2014-Dec-18 16:22 026 10.0
2014-Dec-18 16:17 011 2 gusting 5 10.0
2014-Dec-18 16:12 013 2 gusting 4 10.0
2014-Dec-18 16:07 355 10.0
2014-Dec-18 16:02 10.0
2014-Dec-18 15:57 355 3 gusting 7 10.0
2014-Dec-18 15:52 029 5 gusting 6 10.0
2014-Dec-18 15:47 049 3 gusting 6 10.0
2014-Dec-18 15:42 017 0 gusting 6 10.0
2014-Dec-18 15:37 10.0
2014-Dec-18 15:32 009 5 gusting 7 10.0
2014-Dec-18 15:27 035 5 gusting 7 10.6
2014-Dec-18 15:22 10.6
2014-Dec-18 15:17 005 5 gusting 6 10.6
2014-Dec-18 15:12 010 3 gusting 6 10.6
2014-Dec-18 15:07 039 5 gusting 7 10.6
2014-Dec-18 15:02 022 2 gusting 7 10.6
2014-Dec-18 14:57 022 4 gusting 6 10.6
2014-Dec-18 14:52 044 3 gusting 5 10.6
2014-Dec-18 14:47 026 2 gusting 6 10.6
2014-Dec-18 14:42 011 3 gusting 9 10.6
2014-Dec-18 14:37 017 6 gusting 7 10.6
2014-Dec-18 14:32 030 6 gusting 6 10.6
2014-Dec-18 14:27 020 6 gusting 6 10.6
2014-Dec-18 14:22 031 3 gusting 5 10.6
2014-Dec-18 14:17 042 0 gusting 4 10.6
2014-Dec-18 14:12 042 2 gusting 6 11.1
2014-Dec-18 14:07 047 3 gusting 4 11.1
2014-Dec-18 14:02 044 2 gusting 4 11.1
2014-Dec-18 13:57 055 2 gusting 4 11.1
2014-Dec-18 13:52 032 3 gusting 5 11.1
2014-Dec-18 13:47 040 3 gusting 4 11.7
2014-Dec-18 13:42 057 3 gusting 4 11.7
2014-Dec-18 13:37 067 2 gusting 4 11.7
2014-Dec-18 13:32 068 12.2
2014-Dec-18 13:27 060 12.2
2014-Dec-18 13:22 049 1 gusting 1 12.8
2014-Dec-18 13:17 076 12.2
2014-Dec-18 13:12 076 0 gusting 1 12.8
2014-Dec-18 13:07 062 13.3
2014-Dec-18 13:02 053 12.8
2014-Dec-18 12:57 053 12.8
2014-Dec-18 12:52 053 13.3
2014-Dec-18 12:47 053 13.3
2014-Dec-18 12:42 063 1 gusting 2 13.3
2014-Dec-18 12:37 052 2 gusting 2 13.9
2014-Dec-18 12:32 128 13.9
2014-Dec-18 12:27 228 13.9
2014-Dec-18 12:22 228 13.3
2014-Dec-18 12:17 228 13.3
2014-Dec-18 12:12 228 13.3
2014-Dec-18 12:07 217 0 gusting 0 13.3
2014-Dec-18 12:02 276 13.3
2014-Dec-18 11:57 355 13.3
2014-Dec-18 11:52 017 12.8
2014-Dec-18 11:47 337 0 gusting 3 12.8
2014-Dec-18 11:42 034 12.8
2014-Dec-18 11:37 005 0 gusting 3 12.8
2014-Dec-18 11:32 033 12.8
2014-Dec-18 11:27 033 2 gusting 6 12.2
2014-Dec-18 11:22 015 3 gusting 5 12.2
2014-Dec-18 11:17 005 1 gusting 6 12.2
2014-Dec-18 11:12 019 4 gusting 6 12.2
2014-Dec-18 11:07 035 5 gusting 6 12.2
2014-Dec-18 11:02 029 12.2
2014-Dec-18 10:57 020 3 gusting 6 12.2
2014-Dec-18 10:52 009 3 gusting 6 12.2
2014-Dec-18 10:47 331 6 gusting 7 12.2
2014-Dec-18 10:42 329 5 gusting 7 12.2
2014-Dec-18 10:37 012 4 gusting 9 12.2
2014-Dec-18 10:32 022 8 gusting 9 11.7
2014-Dec-18 10:27 035 11.7
2014-Dec-18 10:22 019 2 gusting 7 11.7
2014-Dec-18 10:17 355 1 gusting 7 11.1
2014-Dec-18 10:12 005 11.1
2014-Dec-18 10:07 026 0 gusting 3 11.1
2014-Dec-18 10:02 017 1 gusting 6 11.7